Location: Choisy
(48.7685°N, 2.4187°E)
Time: 13:11:57
(UTC+00:00)

ATLAS 3B R/B - Pass Details

Date: 03 June 2022
Orbit: 976 x 1218 km, 63.8° (Epoch: 20 June)

Event Time Altitude Azimuth Distance (km) Brightness Sun altitude
Rises 22:01:45 0° 310° (NW) 4,006 6.9 -14.9°
Reaches altitude 10° 22:05:29 10° 291° (WNW) 3,082 5.8 -15.2°
Maximum altitude 22:09:54 17° 254° (WSW) 2,611 4.8 -15.5°
Drops below altitude 10° 22:14:25 10° 217° (SW) 3,143 4.9 -15.8°
Enters shadow 22:16:20 - 207° (SSW) 3,587 5.1 -15.9°
